#timestamp,LO_Frequency,Hit,StdDev 
1584997215.5,286046991.7,N
1584997235.4,286046988.9,N
1584997255.2,286046983.5,N
1584997275.0,286046984.2,N
1584997275.9,286046984.2,N
1584997295.8,286046988.0,N
1584997315.6,286046987.6,N
1584997335.4,286046982.8,Y
1584997355.3,286046999.1,P
1584997375.1,286047004.2,N
1584997395.9,286047001.8,N
1584997415.7,286047001.6,N
1584997435.5,286047002.2,N
1584997455.4,286047006.0,N
1584997475.2,286047007.0,N
1584997495.0,286047009.9,N
1584997496.0,286047009.9,N
1584997515.8,286047014.3,N
1584997535.6,286047018.5,N
1584997555.5,286047017.3,N
1584997575.3,286047021.6,N
1584997595.1,286047020.3,N
1584997615.9,286047018.9,N
1584997635.7,286047023.2,N
1584997655.5,286047023.8,N
1584997675.4,286047025.6,N
1584997695.2,286047028.0,N
1584997715.1,286047024.3,N
1584997716.0,286047024.3,N
1584997735.8,286047024.4,N
1584997755.6,286047023.9,N
1584997775.5,286047025.1,N
1584997795.3,286047023.4,N
1584997815.1,286047020.5,N
1584997835.9,286047020.9,N
1584997855.7,286047021.0,N
1584997875.6,286047023.8,N
1584997895.4,286047022.5,N
1584997915.2,286047022.5,N
1584997935.1,286047021.6,N
1584997936.0,286047021.6,N
1584997955.8,286047022.0,Y
1584997975.7,286046998.7,P
1584997995.5,286046997.4,N
1584998015.3,286046991.1,N
1584998035.2,286046989.0,N
1584998055.0,286046990.9,N
1584998055.9,286046990.9,N
1584998075.8,286046994.1,N
1584998095.6,286046993.7,N
1584998115.4,286046993.9,N
1584998135.3,286046992.8,N
1584998155.1,286046990.3,N
1584998175.8,286046988.7,N
1584998195.7,286046987.8,N
1584998215.5,286046987.9,N
1584998235.4,286046985.1,N
1584998255.2,286046986.4,N
1584998275.0,286046989.4,N
1584998275.9,286046989.4,N
1584998295.8,286046989.8,N
1584998315.6,286046985.1,N
1584998335.4,286046983.2,N
1584998355.3,286046979.8,N
1584998375.1,286046977.9,Y
1584998395.9,286046984.2,P
1584998415.7,286046986.1,P
1584998435.6,286046988.7,P
1584998455.4,286046988.4,Y
1584998475.2,286047001.8,P
1584998495.1,286046998.5,N
1584998496.0,286046998.5,N
1584998515.8,286047004.1,N
1584998535.7,286047000.2,N
1584998555.5,286047004.4,N
1584998575.4,286046998.7,N
1584998595.2,286047002.8,N
1584998615.1,286046990.6,N
1584998616.0,286046990.6,N
1584998635.8,286046991.2,N
1584998655.6,286046988.0,N
1584998675.5,286046992.4,N
1584998695.3,286046990.6,N
1584998715.2,286046988.7,N
1584998735.9,286046992.0,N
1584998755.7,286046995.1,N
1584998775.6,286046992.3,N
1584998795.4,286046993.2,N
1584998815.2,286046990.4,N
1584998835.1,286046989.5,N
1584998836.0,286046989.5,N
1584998855.8,286046993.0,N
1584998875.7,286046993.5,N
1584998895.5,286046994.7,N
1584998915.3,286046995.9,N
1584998935.2,286046994.7,N
1584998955.0,286046992.4,N
1584998955.9,286046992.4,N
1584998975.8,286046999.6,N
1584998995.6,286046995.7,N
1584999015.4,286047001.1,N
1584999035.3,286047003.7,N
1584999055.1,286047003.6,N
1584999075.8,286047002.0,N
1584999095.7,286047005.1,N
1584999115.5,286047008.7,N
1584999135.4,286047011.5,N
1584999155.2,286047013.6,N
1584999175.0,286047016.8,N
1584999175.9,286047016.8,N
1584999195.8,286047014.6,N
1584999215.6,286047010.1,N
1584999235.4,286047008.5,N
1584999255.3,286047009.5,N
1584999275.1,286047012.5,N
1584999295.9,286047015.0,N
1584999315.7,286047013.6,N
1584999335.5,286047014.2,N
1584999355.4,286047015.1,N
1584999375.2,286047018.4,N
1584999395.0,286047015.3,N
1584999395.9,286047015.3,N
1584999415.8,286047015.4,N
1584999435.6,286047018.2,N
1584999455.5,286047012.6,N
1584999475.3,286047010.4,N
1584999495.1,286047007.4,N
1584999515.9,286047004.3,N
1584999535.7,286047001.0,N
1584999555.5,286047004.2,N
1584999575.4,286047004.5,N
1584999595.2,286047002.9,N
1584999615.1,286047003.7,N
1584999616.0,286047003.7,N
1584999635.8,286046996.2,N
1584999655.6,286046996.6,N
1584999675.5,286046995.1,N
1584999695.3,286046994.9,N
1584999715.1,286046992.2,N
1584999735.9,286046998.2,N
1584999755.7,286047003.5,N
1584999775.6,286047001.7,N
1584999795.4,286047005.5,N
1584999815.2,286047003.8,N
1584999835.1,286047005.6,N
1584999836.0,286047005.6,N
1584999855.8,286047005.7,N
1584999875.7,286047014.0,N
1584999895.5,286047013.9,N
1584999915.4,286047016.5,N
1584999935.2,286047011.7,N
1584999955.1,286047008.4,N
1584999956.0,286047008.4,N
1584999975.8,286047008.3,N
1584999995.6,286047011.7,N
1585000015.5,286047009.0,N
1585000035.3,286047011.8,N
1585000055.1,286047008.7,N
1585000075.9,286047010.4,N
1585000095.7,286047007.7,N
1585000115.6,286047004.4,N
1585000135.4,286046996.9,N
1585000155.2,286047001.8,N
1585000175.1,286047002.1,N
1585000176.0,286047002.1,N
1585000195.8,286047003.2,N
1585000215.7,286047005.0,N
1585000235.5,286047007.6,N
1585000255.3,286047012.9,N
1585000275.2,286047012.8,N
1585000295.0,286047013.3,N
1585000295.9,286047013.3,N
1585000315.7,286047017.0,Y
1585000335.6,286047011.7,P
1585000355.4,286047003.7,N
1585000375.3,286047000.5,N
1585000395.1,286047000.2,N
1585000396.0,286047000.2,N
1585000415.8,286046996.0,N
1585000435.7,286046995.4,N
1585000455.5,286046997.3,N
1585000475.4,286046997.9,N
1585000495.2,286047002.4,N
1585000515.0,286046997.3,N
1585000515.9,286046997.3,N
1585000535.8,286046999.6,N
1585000555.6,286046997.3,N
1585000575.4,286046996.0,N
1585000595.3,286046988.9,N
1585000615.1,286046987.2,N
1585000635.9,286046984.0,N
1585000655.7,286046987.4,N
1585000675.5,286046984.8,N
1585000695.4,286046991.1,N
1585000715.2,286046996.6,N
1585000735.0,286047005.4,N
1585000735.9,286047005.4,N
1585000755.8,286047004.7,N
1585000775.6,286047005.6,N
1585000795.5,286047000.6,N
